| time (UTC) | temp C | wind direction | speed KPH | gust KPH | rain 1hr cm | rain 24hr cm | rain mn cm | humidity % | barometer mb |
| 20260507114602 | 21 | 0 | 0.0 | 1.6 | 0.00 | 0.38 | 0.38 | 88 | 1014.0 |
| 20260507113035 | 21 | 203 | 0.0 | 1.6 | 0.00 | 0.38 | 0.38 | 88 | 1013.2 |
| 20260507111536 | 22 | 0 | 0.0 | 3.2 | 0.00 | 0.38 | 0.38 | 88 | 1013.8 |
| 20260507110035 | 22 | 0 | 0.0 | 0.0 | 0.00 | 0.38 | 0.38 | 87 | 1014.3 |
| 20260507104535 | 22 | 0 | 0.0 | 1.6 | 0.00 | 0.38 | 0.38 | 86 | 1013.9 |
| 20260507103031 | 22 | 0 | 0.0 | 4.8 | 0.00 | 0.38 | 0.38 | 85 | 1014.5 |
| 20260507101542 | 22 | 0 | 0.0 | 0.0 | 0.00 | 0.38 | 0.38 | 86 | 1014.9 |
| 20260507100039 | 22 | 0 | 0.0 | 1.6 | 0.00 | 0.38 | 0.38 | 87 | 1014.5 |
| 20260507094535 | 22 | 0 | 0.0 | 1.6 | 0.00 | 0.38 | 0.38 | 88 | 1014.9 |
| 20260507093033 | 22 | 216 | 0.0 | 3.2 | 0.00 | 0.38 | 0.38 | 88 | 1014.3 |
| 20260507091540 | 22 | 0 | 0.0 | 1.6 | 0.00 | 0.38 | 0.38 | 88 | 1014.2 |
| 20260507090038 | 23 | 0 | 0.0 | 0.0 | 0.00 | 0.38 | 0.38 | 88 | 1013.5 |
| 20260507084536 | 23 | 0 | 0.0 | 1.6 | 0.00 | 0.38 | 0.38 | 88 | 1013.3 |
| 20260507083035 | 23 | 0 | 0.0 | 1.6 | 0.00 | 0.38 | 0.38 | 88 | 1013.1 |
| 20260507081538 | 23 | 0 | 0.0 | 6.4 | 0.00 | 0.38 | 0.38 | 88 | 1012.7 |
| 20260507080036 | 23 | 210 | 1.6 | 8.0 | 0.00 | 0.38 | 0.38 | 88 | 1012.7 |
| 20260507074535 | 23 | 224 | 1.6 | 4.8 | 0.00 | 0.38 | 0.38 | 88 | 1012.3 |
| 20260507073037 | 23 | 224 | 0.0 | 1.6 | 0.00 | 0.38 | 0.38 | 88 | 1012.8 |
| 20260507071536 | 22 | 0 | 0.0 | 3.2 | 0.00 | 0.38 | 0.38 | 88 | 1013.0 |
| 20260507070035 | 22 | 0 | 0.0 | 6.4 | 0.00 | 0.38 | 0.38 | 88 | 1013.0 |
| 20260507064535 | 22 | 208 | 0.0 | 6.4 | 0.00 | 0.38 | 0.38 | 88 | 1013.1 |
| 20260507063035 | 22 | 210 | 1.6 | 6.4 | 0.05 | 0.38 | 0.38 | 88 | 1013.5 |
| 20260507061537 | 22 | 219 | 1.6 | 6.4 | 0.30 | 0.38 | 0.38 | 89 | 1013.5 |
| 20260507060037 | 22 | 0 | 0.0 | 4.8 | 0.38 | 0.38 | 0.38 | 89 | 1013.9 |
| 20260507054538 | 22 | 0 | 0.0 | 4.8 | 0.38 | 0.38 | 0.38 | 89 | 1013.7 |
| 20260507053035 | 23 | 227 | 0.0 | 6.4 | 0.30 | 0.30 | 0.30 | 89 | 1014.2 |
| 20260507051534 | 23 | 3 | 1.6 | 6.4 | 0.08 | 0.08 | 0.08 | 88 | 1014.3 |
| 20260507050035 | 23 | 198 | 1.6 | 8.0 | 0.00 | 0.00 | 0.00 | 89 | 1014.7 |
| 20260507044537 | 23 | 196 | 1.6 | 8.0 | 0.00 | 0.28 | 0.00 | 90 | 1014.4 |
| 20260507043035 | 23 | 200 | 1.6 | 6.4 | 0.00 | 0.28 | 0.00 | 90 | 1014.6 |
| 20260507041535 | 23 | 0 | 0.0 | 6.4 | 0.00 | 0.28 | 0.00 | 90 | 1014.8 |
| 20260507040036 | 23 | 0 | 1.6 | 4.8 | 0.00 | 0.28 | 0.00 | 91 | 1014.7 |
| 20260507034537 | 23 | 196 | 0.0 | 8.0 | 0.00 | 0.28 | 0.28 | 91 | 1014.6 |
| 20260507033036 | 23 | 0 | 0.0 | 8.0 | 0.00 | 0.28 | 0.28 | 91 | 1014.9 |
| 20260507031534 | 23 | 205 | 0.0 | 4.8 | 0.00 | 0.28 | 0.28 | 91 | 1014.7 |
| 20260507030034 | 23 | 207 | 1.6 | 8.0 | 0.00 | 0.28 | 0.28 | 91 | 1014.6 |
| 20260507024533 | 23 | 0 | 0.0 | 4.8 | 0.00 | 0.28 | 0.28 | 90 | 1014.1 |
| 20260507023042 | 23 | 206 | 0.0 | 8.0 | 0.00 | 0.28 | 0.28 | 90 | 1014.3 |
| 20260507021534 | 23 | 200 | 1.6 | 6.4 | 0.00 | 0.28 | 0.28 | 90 | 1014.2 |
| 20260507020048 | 23 | 0 | 0.0 | 8.0 | 0.00 | 0.28 | 0.28 | 89 | 1014.7 |
| 20260507014533 | 23 | 0 | 1.6 | 4.8 | 0.00 | 0.28 | 0.28 | 89 | 1014.9 |
| 20260507013047 | 23 | 195 | 1.6 | 6.4 | 0.00 | 0.28 | 0.28 | 88 | 1014.7 |
| 20260507011535 | 23 | 0 | 0.0 | 4.8 | 0.00 | 0.28 | 0.28 | 88 | 1015.2 |
| 20260507010037 | 23 | 202 | 1.6 | 4.8 | 0.00 | 0.28 | 0.28 | 87 | 1015.0 |
| 20260507004540 | 23 | 203 | 0.0 | 6.4 | 0.00 | 0.28 | 0.28 | 88 | 1015.0 |
| 20260507003042 | 23 | 202 | 1.6 | 4.8 | 0.00 | 0.28 | 0.28 | 87 | 1015.2 |
| 20260507001543 | 23 | 201 | 1.6 | 6.4 | 0.00 | 0.28 | 0.28 | 87 | 1014.8 |
| 20260507000038 | 23 | 199 | 0.0 | 8.0 | 0.00 | 0.28 | 0.28 | 87 | 1014.8 |
| 20260506234538 | 23 | 0 | 1.6 | 8.0 | 0.00 | 0.28 | 0.28 | 86 | 1014.8 |
| 20260506233035 | 23 | 227 | 1.6 | 4.8 | 0.00 | 0.28 | 0.28 | 86 | 1014.7 |
| 20260506231537 | 23 | 210 | 0.0 | 9.7 | 0.00 | 0.28 | 0.28 | 86 | 1014.7 |
| 20260506230046 | 24 | 174 | 1.6 | 8.0 | 0.00 | 0.28 | 0.28 | 86 | 1014.5 |
| 20260506224537 | 24 | 212 | 0.0 | 8.0 | 0.00 | 0.28 | 0.28 | 86 | 1014.6 |
| 20260506223042 | 24 | 195 | 0.0 | 6.4 | 0.00 | 0.28 | 0.28 | 87 | 1015.1 |
| 20260506221534 | 24 | 0 | 1.6 | 6.4 | 0.00 | 0.28 | 0.28 | 86 | 1015.0 |
| 20260506220035 | 24 | 198 | 1.6 | 8.0 | 0.00 | 0.28 | 0.28 | 86 | 1014.7 |
| 20260506214541 | 24 | 217 | 0.0 | 8.0 | 0.00 | 0.28 | 0.28 | 86 | 1014.9 |
| 20260506213046 | 24 | 200 | 1.6 | 8.0 | 0.00 | 0.28 | 0.28 | 85 | 1015.1 |
| 20260506211535 | 24 | 205 | 3.2 | 9.7 | 0.00 | 0.28 | 0.28 | 84 | 1015.1 |
| 20260506210035 | 24 | 238 | 1.6 | 6.4 | 0.00 | 0.28 | 0.28 | 84 | 1015.3 |
| 20260506204532 | 25 | 217 | 1.6 | 8.0 | 0.00 | 0.28 | 0.28 | 84 | 1015.3 |
| 20260506203033 | 25 | 205 | 4.8 | 11.3 | 0.00 | 0.28 | 0.28 | 83 | 1015.4 |
| 20260506201535 | 25 | 219 | 3.2 | 12.9 | 0.00 | 0.28 | 0.28 | 83 | 1015.6 |
| 20260506200034 | 25 | 200 | 3.2 | 8.0 | 0.00 | 0.28 | 0.28 | 82 | 1015.8 |
| 20260506194535 | 25 | 131 | 1.6 | 8.0 | 0.00 | 0.28 | 0.28 | 82 | 1015.7 |
| 20260506193033 | 25 | 202 | 3.2 | 9.7 | 0.00 | 0.28 | 0.28 | 82 | 1016.0 |
| 20260506191540 | 25 | 196 | 1.6 | 9.7 | 0.00 | 0.28 | 0.28 | 82 | 1016.2 |
| 20260506190035 | 25 | 205 | 3.2 | 16.1 | 0.00 | 0.28 | 0.28 | 80 | 1016.3 |
| 20260506184546 | 26 | 198 | 3.2 | 9.7 | 0.00 | 0.28 | 0.28 | 80 | 1016.4 |
| 20260506183050 | 26 | 211 | 1.6 | 12.9 | 0.00 | 0.28 | 0.28 | 79 | 1016.4 |
| 20260506181558 | 26 | 220 | 3.2 | 12.9 | 0.00 | 0.28 | 0.28 | 78 | 1016.5 |
| 20260506180037 | 26 | 170 | 1.6 | 8.0 | 0.00 | 0.28 | 0.28 | 79 | 1016.6 |
| 20260506174533 | 26 | 198 | 1.6 | 8.0 | 0.00 | 0.28 | 0.28 | 79 | 1016.8 |
| 20260506173053 | 25 | 202 | 1.6 | 6.4 | 0.00 | 0.28 | 0.28 | 80 | 1017.1 |
| 20260506171534 | 25 | 203 | 1.6 | 8.0 | 0.00 | 0.28 | 0.28 | 80 | 1017.5 |
| 20260506170039 | 25 | 213 | 1.6 | 6.4 | 0.00 | 0.28 | 0.28 | 81 | 1017.4 |
| 20260506164538 | 25 | 200 | 0.0 | 4.8 | 0.00 | 0.28 | 0.28 | 80 | 1017.6 |
| 20260506163038 | 25 | 200 | 1.6 | 8.0 | 0.00 | 0.28 | 0.28 | 79 | 1017.6 |
| 20260506161535 | 25 | 194 | 1.6 | 8.0 | 0.00 | 0.28 | 0.28 | 79 | 1017.8 |
| 20260506160034 | 25 | 202 | 3.2 | 8.0 | 0.00 | 0.28 | 0.28 | 78 | 1017.7 |
| 20260506154542 | 26 | 198 | 1.6 | 6.4 | 0.00 | 0.28 | 0.28 | 75 | 1017.9 |
| 20260506153050 | 25 | 0 | 0.0 | 6.4 | 0.00 | 0.28 | 0.28 | 77 | 1017.8 |
| 20260506151541 | 25 | 208 | 0.0 | 4.8 | 0.00 | 0.28 | 0.28 | 79 | 1018.2 |
| 20260506150035 | 25 | 198 | 0.0 | 6.4 | 0.00 | 0.28 | 0.28 | 78 | 1018.1 |
| 20260506144544 | 25 | 201 | 1.6 | 6.4 | 0.00 | 0.28 | 0.28 | 77 | 1017.8 |
| 20260506143040 | 25 | 212 | 1.6 | 8.0 | 0.00 | 0.28 | 0.28 | 77 | 1017.5 |
| 20260506141535 | 25 | 202 | 1.6 | 9.7 | 0.00 | 0.28 | 0.28 | 80 | 1017.6 |
| 20260506140035 | 24 | 201 | 3.2 | 8.0 | 0.00 | 0.28 | 0.28 | 81 | 1017.5 |
| 20260506134536 | 23 | 0 | 0.0 | 4.8 | 0.00 | 0.28 | 0.28 | 85 | 1017.2 |
| 20260506133034 | 23 | 214 | 1.6 | 6.4 | 0.00 | 0.28 | 0.28 | 84 | 1017.2 |
| 20260506131539 | 23 | 211 | 1.6 | 4.8 | 0.00 | 0.28 | 0.28 | 85 | 1016.8 |
| 20260506130036 | 23 | 223 | 0.0 | 6.4 | 0.00 | 0.28 | 0.28 | 85 | 1017.2 |
| 20260506124535 | 23 | 0 | 0.0 | 4.8 | 0.00 | 0.28 | 0.28 | 86 | 1017.2 |
| 20260506123035 | 23 | 0 | 1.6 | 4.8 | 0.00 | 0.28 | 0.28 | 87 | 1016.8 |
| 20260506121531 | 22 | 191 | 1.6 | 6.4 | 0.00 | 0.28 | 0.28 | 88 | 1016.9 |
| 20260506120041 | 22 | 0 | 0.0 | 3.2 | 0.00 | 0.28 | 0.28 | 89 | 1016.7 |